Location: ????????
(38.4362°N, 22.8767°E)
Time: 17:43:56
(UTC+00:00)

Meteor 2-12 Rocket - Visible Passes

Search period start: 12 July 2024 00:00
Search period end: 22 July 2024 00:00
Orbit: 935 x 958 km, 82.5° (Epoch: 12 July)

Date Brightness Start Highest point End Pass type
(mag) Time Alt. Az. Time Alt. Az. Time Alt. Az.
12 Jul 7.2 01:24:10 10° NE 01:27:20 14° ENE 01:30:27 10° E visible
13 Jul 6.8 01:39:36 10° NNE 01:44:17 23° ENE 01:48:57 10° ESE visible
14 Jul 6.0 01:55:38 10° N 02:01:09 36° ENE 02:06:38 10° SE visible
15 Jul 5.2 02:11:57 10° N 02:17:54 57° E 02:23:50 10° SSE visible
16 Jul 7.3 00:46:56 10° NE 00:48:54 12° ENE 00:50:52 10° E visible
16 Jul 4.5 02:28:29 10° N 02:34:34 89° E 02:40:37 10° S visible
17 Jul 6.9 01:01:45 10° NNE 01:05:55 19° ENE 01:10:04 10° ESE visible
17 Jul 4.5 02:45:13 10° NNW 02:51:08 58° W 02:57:02 10° S visible
18 Jul 6.2 01:17:35 10° NNE 01:22:49 30° ENE 01:28:01 10° SE visible
19 Jul 5.4 01:33:48 10° N 01:39:37 47° ENE 01:45:24 10° SSE visible
20 Jul 4.6 01:50:15 10° N 01:56:19 74° E 02:02:22 10° SSE visible
21 Jul 6.9 00:24:01 10° NNE 00:27:32 16° ENE 00:31:01 10° ESE visible
21 Jul 4.4 02:06:54 10° NNW 02:12:55 71° W 02:18:56 10° S visible
